sat.trackr.live / text

‹ back to catalog

STARLINK-5222

NORAD 54068 · 2022-136T

PAYLOAD ACTIVE UNKNOWN

§ Identity

Operator
Country
US
Launch date
2022-10-20
Launch site
AFETR
Launch vehicle
Mass (kg)
RCS (m²)

Purposes: comms

External: N2YO · Heavens-Above · Gunter

§ Orbital elements

Epoch: 2026-09-20T06:34:26.914368Z

Period
93.79 min
Inclination
53.1603°
Eccentricity
0.0001468
Mean motion
15.35392095 rev/d
Perigee alt
458.8 km
Apogee alt
460.8 km
Semi-major
6,837.9 km
B*
4.4126e-7
RAAN
180.5318°
Arg perigee
86.1573°
Mean anomaly
273.9598°
Rev number
21,635

§ Raw data

STARLINK-52221 54068U 22136T   26263.27392262 -.00000365  00000+0  44126-6 0  99962 54068  53.1603 180.5318 0001468  86.1573 273.9598 15.35392095216350

JSON: /api/v1/satellites/54068 · /tle

For live sub-satellite position, see the globe view (requires WebGL).

§ Visibility from observer

Set your observer location to see the next 7 days of passes ≥ 10°. The values pass through the URL so the page stays shareable.

No JS? Fill the form by hand. The geolocation button needs JavaScript.